Location: Costa Valle Imagna
(45.8000°N, 9.5000°E)
Time: 05:21:41
(UTC+00:00)

Shenzhou-11 Module - Pass Details

Date: 17 February 2020
Orbit: 289 x 307 km, 42.8° (Epoch: 28 March)

Event Time Altitude Azimuth Distance (km) Brightness Sun altitude
Exits shadow 05:38:27 - 230° (SW) 1,600 4.8 -8.3°
Reaches altitude 10° 05:39:37 10° 219° (SW) 1,164 4.2 -8.1°
Maximum altitude 05:41:48 24° 162° (SSE) 684 3.7 -7.7°
Drops below altitude 10° 05:44:01 10° 105° (ESE) 1,181 6.3 -7.3°
Sets 05:46:11 0° 91° (E) 2,016 7.9 -6.9°
